Location: Rancho Del Sol Observatory
(38.7214°N, 120.6350°W)
Time: 06:38:54
(UTC-08:00)

A-11 Canister half - Pass Details

Date: 29 January 2020
Orbit: 1517 x 1683 km, 47.2° (Epoch: 26 February)

Event Time Altitude Azimuth Distance (km) Brightness Sun altitude
Rises 01:09:14 0° 277° (W) 4,722 - -66.2°
Reaches altitude 10° 01:12:28 10° 283° (WNW) 3,720 - -65.9°
Maximum altitude 01:21:31 51° 358° (N) 1,859 - -64.8°
Drops below altitude 10° 01:30:27 10° 72° (ENE) 3,679 - -63.7°
Exits shadow 01:31:18 - 74° (ENE) 3,937 11.4 -63.5°
Sets 01:33:39 0° 78° (ENE) 4,666 11.9 -63.2°
